Weather History for KPSX - October, 2014

Change the Weather History Date:

Thursday, October 2, 2014

  Actual Average Record
Temperature  
Mean Temperature 82 °F -  
Max Temperature 88 °F 85 °F 95 °F (1952)
Min Temperature 75 °F 66 °F 51 °F (1944)
Cooling Degree Days 16    
Growing Degree Days 32 (Base 50)    
Moisture  
Dew Point 79 °F    
Average Humidity 84    
Maximum Humidity 96    
Minimum Humidity 74    
Precipitation  
Precipitation 0.00 in - - ()
Sea Level Pressure  
Sea Level Pressure 29.86 in    
Wind  
Wind Speed 12 mph (South)    
Max Wind Speed 17 mph    
Max Gust Speed 24 mph    
Visibility 9 miles    
Events Rain    
Averages and records for this station are not official NWS values.
T = Trace of Precipitation, MM = Missing Value Source: NWS Daily Summary

Daily Weather History Graph

Daily Weather History Graph

Search for Another Location

Airport or City:

Trip Planner

Search our weather history database for the weather conditions in past years. The results will help you decide how hot, cold, wet, or windy it might be!

Date:

Astronomy

Oct. 02, 2014 Rise Set
Actual Time 7:18 AM CDT 7:09 PM CDT
Civil Twilight 6:55 AM CDT 7:33 PM CDT
Nautical Twilight 6:27 AM CDT 8:00 PM CDT
Astronomical Twilight 6:00 AM CDT 8:27 PM CDT
Moon 2:52 PM CDT (10/2) 1:02 AM CDT (10/2)
Length of Visible Light 12h 38m
Length of Day
11h 50m
First Quarter, 60% of the Moon is Illuminated
Oct 2
First Quarter
Oct 8
Full
Oct 15
Last Quarter
Oct 23
New
Oct 30
First Quarter

Hourly Weather History & Observations

Time (CDT) Temp. Heat Index Dew Point Humidity Pressure Visibility Wind Dir Wind Speed Gust Speed Precip Events Conditions
12:53 AM 82.0 °F 91.6 °F 79.0 °F 90% 29.84 in 5.0 mi South 10.4 mph - N/A   Clear
1:53 AM 82.0 °F 91.6 °F 79.0 °F 90% 29.84 in 7.0 mi South 11.5 mph - N/A   Clear
2:53 AM 82.0 °F 91.6 °F 79.0 °F 90% 29.83 in 7.0 mi South 11.5 mph - N/A   Scattered Clouds
3:53 AM 82.0 °F 91.6 °F 79.0 °F 90% 29.83 in 10.0 mi South 11.5 mph - N/A   Clear
4:53 AM 82.0 °F 91.6 °F 79.0 °F 90% 29.83 in 10.0 mi South 11.5 mph - N/A   Clear
5:53 AM 82.0 °F 91.0 °F 78.1 °F 88% 29.85 in 10.0 mi South 11.5 mph - N/A   Clear
6:32 AM 75.0 °F - 73.9 °F 96% 29.80 in 3.0 mi ENE 3.5 mph - N/A   Mostly Cloudy
6:53 AM 82.0 °F 91.0 °F 78.1 °F 88% 29.86 in 10.0 mi South 11.5 mph - N/A   Clear
7:53 AM 82.0 °F 91.6 °F 79.0 °F 90% 29.87 in 10.0 mi South 11.5 mph - N/A   Partly Cloudy
8:53 AM 84.0 °F 96.0 °F 79.0 °F 85% 29.88 in 10.0 mi South 12.7 mph - N/A   Clear
9:53 AM 84.9 °F 97.5 °F 79.0 °F 82% 29.90 in 10.0 mi South 16.1 mph 23.0 mph N/A   Clear
10:53 AM 86.0 °F 99.3 °F 79.0 °F 79% 29.91 in 9.0 mi South 16.1 mph - N/A   Clear
11:53 AM 88.0 °F 103.1 °F 79.0 °F 75% 29.91 in 8.0 mi South 12.7 mph - N/A   Clear
12:53 PM 87.1 °F 101.5 °F 79.0 °F 77% 29.90 in 8.0 mi South 15.0 mph - N/A   Scattered Clouds
1:53 PM 88.0 °F 103.1 °F 79.0 °F 75% 29.88 in 10.0 mi South 17.3 mph 24.2 mph N/A   Clear
2:53 PM 88.0 °F 103.1 °F 79.0 °F 75% 29.87 in 10.0 mi South 15.0 mph 21.9 mph N/A   Scattered Clouds
3:53 PM 87.1 °F 99.8 °F 78.1 °F 74% 29.84 in 10.0 mi South 17.3 mph - N/A   Clear
4:53 PM 87.1 °F 101.5 °F 79.0 °F 77% 29.83 in 10.0 mi South 15.0 mph - N/A   Partly Cloudy
5:53 PM 86.0 °F 98.3 °F 78.1 °F 77% 29.83 in 10.0 mi South 16.1 mph 24.2 mph N/A   Scattered Clouds
6:08 PM 86.0 °F 98.3 °F 78.1 °F 77% 29.83 in 10.0 mi South 16.1 mph 20.7 mph N/A   Mostly Cloudy
6:41 PM 84.9 °F 96.6 °F 78.1 °F 80% 29.84 in 10.0 mi South 16.1 mph - N/A   Scattered Clouds
6:53 PM 84.0 °F 94.8 °F 78.1 °F 82% 29.84 in 10.0 mi South 11.5 mph - N/A   Scattered Clouds
7:18 PM 84.0 °F 94.8 °F 78.1 °F 82% 29.85 in 10.0 mi South 11.5 mph - N/A   Mostly Cloudy
7:53 PM 84.0 °F 96.0 °F 79.0 °F 85% 29.85 in 10.0 mi South 12.7 mph - N/A   Mostly Cloudy
8:07 PM 84.0 °F 96.0 °F 79.0 °F 85% 29.85 in 10.0 mi South 9.2 mph - N/A   Scattered Clouds
8:31 PM 82.9 °F 93.8 °F 79.0 °F 88% 29.85 in 10.0 mi South 13.8 mph - N/A   Mostly Cloudy
8:44 PM 82.9 °F 92.8 °F 78.1 °F 85% 29.86 in 10.0 mi South 12.7 mph - N/A   Scattered Clouds
8:53 PM 82.9 °F 92.8 °F 78.1 °F 85% 29.86 in 10.0 mi South 11.5 mph - N/A   Scattered Clouds
9:05 PM 82.9 °F 93.8 °F 79.0 °F 88% 29.86 in 10.0 mi South 15.0 mph - N/A   Mostly Cloudy
9:37 PM 82.9 °F 93.8 °F 79.0 °F 88% 29.87 in 10.0 mi South 15.0 mph - N/A   Scattered Clouds
9:53 PM 82.9 °F 93.8 °F 79.0 °F 88% 29.87 in 10.0 mi South 13.8 mph 20.7 mph N/A   Partly Cloudy
10:53 PM 82.9 °F 93.8 °F 79.0 °F 88% 29.88 in 10.0 mi South 15.0 mph - 0.00 in Rain Light Rain
11:53 PM 82.9 °F 93.8 °F 79.0 °F 88% 29.91 in 10.0 mi North - - 0.00 in Rain Light Rain